Weather History for West Palm Beach, FL

Change the Weather History Date:

Friday, July 25, 2014

  Actual Average Record
Temperature  
Mean Temperature 84 °F 83 °F  
Max Temperature 91 °F 90 °F 98 °F (1940)
Min Temperature 76 °F 76 °F 66 °F (1940)
Degree Days  
Heating Degree Days 0 0  
Month to date heating degree days 0 0  
Since 1 June heating degree days 0 0  
Since 1 July heating degree days 0 0  
Cooling Degree Days 19 18  
Month to date cooling degree days 445 439  
Year to date cooling degree days 2285 2038  
Since 1 June cooling degree days 933 929  
Growing Degree Days 33 (Base 50)    
Moisture  
Dew Point 75 °F    
Average Humidity 75    
Maximum Humidity 94    
Minimum Humidity 56    
Precipitation  
Precipitation 0.00 in 0.18 in 2.10 in (1891)
Month to date precipitation 6.70 4.69  
Year to date precipitation 32.40 31.70  
Snow  
Snow 0.00 in - - ()
Month to date snowfall 0.0  
Since 1 June snowfall 0.0  
Since 1 July snowfall 0.0  
Snow Depth 0.00 in    
Sea Level Pressure  
Sea Level Pressure 30.06 in    
Wind  
Wind Speed 6 mph (SSE)    
Max Wind Speed 17 mph    
Max Gust Speed 20 mph    
Visibility 10 miles    
Events      
T = Trace of Precipitation, MM = Missing Value Source: NWS Daily Summary

Daily Weather History Graph

Daily Weather History Graph

Search for Another Location

Airport:

Trip Planner

Search our weather history database for the weather conditions in past years. The results will help you decide how hot, cold, wet, or windy it might be!

Date:

Astronomy

Jul. 25, 2014 Rise Set
Actual Time 6:41 AM EDT 8:11 PM EDT
Civil Twilight 6:16 AM EDT 8:37 PM EDT
Nautical Twilight 5:46 AM EDT 9:07 PM EDT
Astronomical Twilight 5:14 AM EDT 9:38 PM EDT
Moon 5:36 AM EDT (7/25) 7:12 PM EDT (7/25)
Length of Visible Light 14h 20m
Length of Day
13h 30m
Waning Crescent, 1% of the Moon is Illuminated
Jul 25
Waning Crescent
Jul 26
New
Aug 3
First Quarter
Aug 10
Full
Aug 17
Last Quarter

Hourly Weather History & Observations

Time (EDT) Temp. Heat Index Dew Point Humidity Pressure Visibility Wind Dir Wind Speed Gust Speed Precip Events Conditions
12:53 AM 82.0 °F 87.4 °F 73.0 °F 74% 30.04 in 10.0 mi South 5.8 mph - N/A   Partly Cloudy
1:53 AM 81.0 °F 86.2 °F 73.9 °F 79% 30.04 in 10.0 mi SSW 4.6 mph - N/A   Partly Cloudy
2:53 AM 80.1 °F 84.5 °F 73.9 °F 81% 30.04 in 10.0 mi SW 3.5 mph - N/A   Partly Cloudy
3:53 AM 78.1 °F - 73.0 °F 84% 30.04 in 10.0 mi WSW 3.5 mph - N/A   Scattered Clouds
4:53 AM 77.0 °F - 73.9 °F 90% 30.04 in 10.0 mi Calm Calm - N/A   Scattered Clouds
5:53 AM 75.9 °F - 73.0 °F 91% 30.06 in 10.0 mi NW 3.5 mph - N/A   Scattered Clouds
6:53 AM 78.1 °F - 73.9 °F 87% 30.06 in 10.0 mi Calm Calm - N/A   Scattered Clouds
7:53 AM 80.1 °F 85.4 °F 75.9 °F 87% 30.08 in 10.0 mi Calm Calm - N/A   Scattered Clouds
8:53 AM 82.9 °F 90.8 °F 75.9 °F 79% 30.09 in 10.0 mi WNW 3.5 mph - N/A   Scattered Clouds
9:53 AM 87.1 °F 96.3 °F 75.0 °F 67% 30.09 in 10.0 mi Calm Calm - N/A   Scattered Clouds
10:53 AM 89.1 °F 96.0 °F 72.0 °F 57% 30.09 in 10.0 mi Calm Calm - N/A   Mostly Cloudy
11:53 AM 90.0 °F 101.3 °F 75.9 °F 63% 30.09 in 10.0 mi ESE 9.2 mph - N/A   Scattered Clouds
12:53 PM 90.0 °F 97.9 °F 73.0 °F 57% 30.08 in 10.0 mi ESE 10.4 mph - N/A   Scattered Clouds
1:53 PM 91.0 °F 101.6 °F 75.0 °F 59% 30.08 in 10.0 mi ESE 11.5 mph - N/A   Scattered Clouds
2:53 PM 89.1 °F 98.0 °F 73.9 °F 61% 30.06 in 10.0 mi ESE 11.5 mph - N/A   Mostly Cloudy
3:53 PM 89.1 °F 99.1 °F 75.0 °F 63% 30.04 in 10.0 mi ESE 13.8 mph - N/A   Mostly Cloudy
4:53 PM 89.1 °F 98.0 °F 73.9 °F 61% 30.03 in 10.0 mi ESE 10.4 mph - N/A   Mostly Cloudy
5:53 PM 88.0 °F 96.5 °F 73.9 °F 63% 30.01 in 10.0 mi SE 12.7 mph - N/A   Mostly Cloudy
6:53 PM 87.1 °F 95.4 °F 73.9 °F 65% 30.04 in 10.0 mi SSE 8.1 mph - N/A   Mostly Cloudy
7:53 PM 84.9 °F 93.3 °F 75.0 °F 72% 30.05 in 10.0 mi SE 8.1 mph - N/A   Mostly Cloudy
8:53 PM 84.9 °F 94.1 °F 75.9 °F 74% 30.06 in 10.0 mi South 5.8 mph - N/A   Mostly Cloudy
9:53 PM 84.0 °F 92.6 °F 75.9 °F 76% 30.07 in 10.0 mi SSE 8.1 mph - N/A   Scattered Clouds
10:53 PM 84.0 °F 93.7 °F 77.0 °F 79% 30.08 in 10.0 mi South 6.9 mph - N/A   Scattered Clouds
11:53 PM 82.9 °F 91.8 °F 77.0 °F 82% 30.07 in 10.0 mi South 5.8 mph - N/A   Partly Cloudy